Other Public Products
Issued by NWS Grand Forks, ND

Home | Current Version | Previous Version | Graphics & Text | Print | Product List | Glossary Off
Versions: 1 2 3 4 5 6 7 8 9 10 11 12 13 14 15 16 17 18 19 20 21 22 23 24 25 26 27 28 29 30 31 32 33 34 35 36 37 38 39 40 41 42 43 44 45 46 47 48 49 50

000
FPUS83 KFGF 231931
OPUFGF
PRAIRIE TO PINES WEATHER ROUNDUP
NATIONAL WEATHER SERVICE EASTERN NORTH DAKOTA/GRAND FORKS ND
200 PM CDT MON APR 23 2018

 **SATELLITE DATA USED TO AUGMENT SKY COVER AT AUTOMATED STATIONS**
 *****  WEATHER ACROSS EASTERN NORTH DAKOTA  *****

CITY           SKY/WX    TMP DP  RH WIND       PRES   REMARKS
GRAND FORKS    FAIR      61  39  44 N9G20     30.19F
GRND FORKS AFB NOT AVBL
GRND FORKS NWS   N/A     62  38  40 N10       30.17F
BUXTON           N/A     63  43  47 N5          N/A
DEVILS LAKE    FAIR      56  33  42 N7        30.22F
FARGO          FAIR      64  46  52 N12       30.17F
WAHPETON ARPT  FAIR      64  37  36 W6        30.17F
$$

 *****  WEATHER ACROSS CENTRAL AND WESTERN NORTH DAKOTA  *****

CITY           SKY/WX    TMP DP  RH WIND       PRES   REMARKS
JAMESTOWN      FAIR      62  37  39 NE7       30.18F
BISMARCK       PTSUNNY   65  32  29 NE14G23   30.19F
MINOT          FAIR      54  34  46 NW15G21   30.25F
MINOT AFB      NOT AVBL
GARRISON         N/A     52  35  52 N16G23    30.23F
WILLISTON      CLOUDY    49  33  54 N15       30.31S
DICKINSON      CLOUDY    51  30  44 N21G26    30.20F
HETTINGER      FAIR      65  33  30 NE30G37   30.14F
$$

 *****  OTHER OBSERVATIONS NORTHEAST NORTH DAKOTA  *****

CITY           SKY/WX    TMP DP  RH WIND       PRES   REMARKS
WALHALLA       FAIR      59  32  36 NW16      30.20S
LANGDON        NOT AVBL
CAVALIER         N/A     59  34  38 N7G17     30.20S
GRAFTON        NOT AVBL
CANDO          MOCLDY    59  34  38 N10       30.24S
FORT TOTTEN      N/A     58  33  39 N6        29.95S
ROLLA          FAIR      54  37  54 NW16      30.23S
RUGBY          NOT AVBL
 ***** THE ABOVE OBSERVATIONS ARE NON NWS ARE NOT QUALITY
        CONTROLLED AND MAY MIS-REPORT RAIN FOR SNOW...
$$

 *****  OTHER OBSERVATIONS SOUTHEAST NORTH DAKOTA *****

CITY           SKY/WX    TMP DP  RH WIND       PRES   REMARKS
COOPERSTOWN    FAIR      59  37  44 N7G14     30.20S
VALLEY CITY    NOT AVBL
OAKES            N/A     66  41  39 VRB5G12   30.16F
GWINNER          N/A     66  41  39 CALM      30.16S
BUFFALO          N/A     59  37  44 SW12        N/A
WYNDMERE       NOT AVBL
 ***** THE ABOVE OBSERVATIONS ARE NON NWS ARE NOT QUALITY
       CONTROLLED AND MAY MIS-REPORT RAIN FOR SNOW...
$$

  *****  WEATHER ACROSS NORTHERN MINNESOTA  *****

CITY           SKY/WX    TMP DP  RH WIND       PRES   REMARKS
FLAG ISLAND    FAIR      54  27  35 NW17      30.14S
WARROAD        FAIR      61  36  39 W15       30.16R
ROSEAU         FAIR      61  39  44 W10G16    30.16S
HALLOCK        FAIR      61  30  31 NW9G18    30.19S
THF RVR FALLS  FAIR      60  34  37 NW14      30.19S
HALSTAD        NOT AVBL
FOSSTON        FAIR      63  37  39 W5        30.18S
BAUDETTE       FAIR      60  36  40 N12       30.14F
WASKISH        CLOUDY    63  36  36 SW12      30.15S
CROOKSTON      FAIR      59  43  55 N10       30.20S
$$
  *****  WEATHER ACROSS CENTRAL AND WEST MINNESOTA  *****

CITY           SKY/WX    TMP DP  RH WIND       PRES   REMARKS
BEMIDJI        FAIR      67  34  30 NW8       30.14F
PARK RAPIDS    FAIR      68  39  34 W10       30.14F
WADENA         FAIR      64  39  39 SW3       30.16F
DETROIT LAKES  FAIR      64  39  39 W7        30.17F
MOORHEAD       FAIR      64  45  48 N3        30.18S
FERGUS FALLS   FAIR      64  37  36 W6        30.14F
ELBOW LAKE     FAIR      65  39  37 W3        30.17F
MORRIS MN      FAIR      68  39  34 SW5       30.16F
STAPLES        FAIR      66  36  32 W6        30.16F
WHEATON        FAIR      66  37  34 SE5       30.17F
$$
  *****  WEATHER ELSEWHERE ACROSS MINNESOTA  *****

CITY           SKY/WX    TMP DP  RH WIND       PRES   REMARKS
DULUTH         FAIR      66  38  35 W8        30.15F
INTRNTL FALLS  FAIR      63  31  30 W15G21    30.13S
ELY            FAIR      64  36  34 W13       30.11F
CLOQUET        FAIR      66  30  26 SW8       30.15F
BRAINERD       FAIR      67  36  31 VRB3      30.16F
HIBBING        FAIR      64  37  36 W12G20    30.13F
ALEXANDRIA     FAIR      67  35  30 VRB3      30.18F
SAINT CLOUD    FAIR      66  39  37 VRB5      30.17F
MINNEAPOLIS    FAIR      67  34  29 SW10      30.18F
$$

  *****  WEATHER ACROSS SOUTH DAKOTA  *****

CITY           SKY/WX    TMP DP  RH WIND       PRES   REMARKS
SIOUX FALLS    FAIR      68  34  28 SE10      30.16F
BROOKINGS      FAIR      65  37  35 VRB5      30.17F
WATERTOWN      FAIR      65  35  33 VRB7      30.16F
HURON          FAIR      67  39  35 S9        30.14F
SISSETON         N/A     69  38  32 VRB3      30.14F
ABERDEEN       FAIR      71  37  28 MISG      30.15F
MITCHELL       FAIR      68  39  34 SE5       30.15F
PIERRE         FAIR      67  41  38 S13G23    30.10F
MOBRIDGE       FAIR      69  41  36 S12       30.10F
RAPID CITY     FAIR      64  40  41 SE10G23   30.04F
$$

  *****  SOME WEATHER IN NEARBY STATES *****

CITY           SKY/WX    TMP DP  RH WIND       PRES   REMARKS
GLASGOW MT     PTSUNNY   48  31  51 N14       30.35S
GREAT FALLS MT PTSUNNY   46  27  47 NE15      30.40F
CHEYENNE WY    PTSUNNY   61  35  37 S17G24    30.05F
SCOTTSBLUFF NE FAIR      68  42  38 SE20G25   30.02F
OMAHA NE       FAIR      73  29  19 NE9       30.12F
DES MOINES IA  PTSUNNY   70  32  24 NE9G17    30.13F
DAVENPORT IA   FAIR      70  32  24 NE17      30.12F
CHICAGO IL     PTSUNNY   59  28  30 NE17      30.12F
EAU CLAIRE WI  FAIR      66  29  24 VRB5      30.18F
LA CROSSE WI   FAIR      67  29  24 NW9       30.17F
$$

  *****  SOME NATIONAL WEATHER *****

CITY           SKY/WX    TMP DP  RH WIND       PRES   REMARKS
LA GUARDIA NY  FAIR      62  30  29 NE10      30.44F
RALEIGH NC     LGT RAIN  63  54  72 E12G20    30.27F
ATLANTA GA     CLOUDY    67  64  90 NE17      29.91F
NEW ORLEANS LA FAIR      72  55  55 W15G24    29.98F
OKLAHOMA CITY  FAIR      69  47  45 NW15G21   30.08F
ALBUQUERQUE NM FAIR      73  25  16 SW5       30.14F
SALT LAKE CITY FAIR      64  40  41 NW14G22   30.15F
LOS ANGELES CA FAIR      66  55  67 W9        30.03F
BOISE ID       FAIR      58  28  32 NW17G24   30.23F
SEATTLE WA     FAIR      63  39  41 N9        30.32F
$$

*** WEATHER ACROSS MANITOBA...SASKATCHEWAN AND ONTARIO ***
                ***ONTARIO***

CITY           SKY/WX    TMP DP  RH WIND       PRES   REMARKS
GERALDTON      PTSUNNY   55  32  41 SW16G22   30.01F
THUNDER BAY    CLOUDY    66  36  32 SW14G22   30.08F
SIOUX LOOKOUT  MOSUNNY   57  30  35 NW15G28   30.05R
TORONTO        MOSUNNY   63  23  22 E12       30.29F
BIG TROUT LK   CLOUDY    39  30  70 NW17G23   29.91R
PICKLE LAKE    MOSUNNY   50  32  50 W20G37    29.96R
DRYDEN         SUNNY     57  28  33 W22G30    30.07S
KENORA         PTSUNNY   55  30  38 W10G21    30.13R
$$
                *** MANITOBA***

CITY           SKY/WX    TMP DP  RH WIND       PRES   REMARKS
BRANDON        CLOUDY    54  37  54 NW15G23   30.22F
DAUPHIN        MOSUNNY   52  36  54 W23G30    30.19S
ISLAND LAKE    CLOUDY    32  25  74 NW8       30.06R WCI  25
PILOT MOUND      N/A     55  34  44 NW13G20     N/A
THE PAS        CLOUDY    34  25  69 NW17G26   30.18R WCI  23
THOMPSON       SNOW      21  18  86 NW8       30.13R VSB 1/2 WCI  12
WINNIPEG       PTSUNNY   57  32  38 NW15G24   30.18F
LYNN LAKE      LGT SNOW  21  16  79 N15       30.21R WCI   8
CHURCHILL      PTSUNNY   21  14  73 N23G30    30.14R WCI   5
GILLAM         LGT SNOW  25  19  80 N15       30.06R WCI  12
$$
                ***SASKATCHEWAN***

CITY           SKY/WX    TMP DP  RH WIND       PRES   REMARKS
ESTEVAN        CLOUDY    50  32  50 NW18G24   30.30F
KINDERSLEY     MOSUNNY   50  23  34 NW12G25   30.38S
LLOYDMINSTER   MOSUNNY   54  23  30 W15G26    30.33F
PRINCE ALBERT  MOSUNNY   50  25  37 N23G31    30.30R
REGINA         PTSUNNY   52  18  25 N28G38    30.32F
YORKTON        PTSUNNY   48  30  49 NW18G31   30.25R
N. BATTLEFORD  SUNNY     54  23  30 NW17G26   30.35F


USA.gov is the U.S. government's official web portal to all federal, state and local government web resources and services.